Location: Latina
(41.4670°N, 12.8670°E)
Time: 16:44:58
(UTC+02:00)

ISS - Pass Details

Date: 17 May 2021
Orbit: 417 x 422 km, 51.6° (Epoch: 18 June)

Event Time Altitude Azimuth Distance (km) Brightness Sun altitude
Rises 03:41:55 0° 304° (NW) 2,373 0.0 -19.2°
Reaches altitude 10° 03:44:01 10° 303° (WNW) 1,507 -1.0 -18.9°
Maximum altitude 03:47:24 76° 218° (SW) 438 -3.9 -18.5°
Drops below altitude 10° 03:50:46 10° 132° (SE) 1,500 -1.0 -18.1°
Sets 03:52:51 0° 131° (SE) 2,362 0.1 -17.8°
